Wind_Speed
8 1 8 14 16 14 12 7 3 3 5 6 8 9 8 6 5 3 4 5 5 4 5 6 7 8 9 10 10 10 9 8 9 8 9 8 9 11 13 15 17 19 17
11 6 9 8 9 7 6 5 5 4 7 6 7 6 5 3 2 3 3 2 3 4 5 6 7 7 8 8 9 9 7 6 6 6 8 10 12 13 14 16 17 20 23
10 7 7 6 3 5 6 4 4 2 5 5 3 2 2 1 1 1 1 2 3 4 5 6 7 8 8 9 8 7 7 6 7 8 10 12 13 14 16 16 16 18 22
12 11 9 6 4 5 4 2 5 2 3 2 2 1 1 2 2 1 2 4 4 5 6 7 8 8 10 9 8 7 7 8 9 11 12 14 15 15 15 17 19 22 21
12 12 11 9 8 8 6 4 4 1 3 2 1 2 2 2 2 3 3 4 5 6 6 7 8 10 10 9 7 6 7 9 11 12 13 13 14 15 15 17 19 20 26
10 10 10 9 9 7 4 4 2 3 2 3 3 3 2 2 2 1 3 5 6 6 7 7 9 9 9 7 7 9 10 10 10 11 13 14 15 16 17 19 21 23 22
12 10 9 9 8 5 3 3 3 3 2 3 3 3 2 2 2 3 4 5 6 6 7 9 9 9 7 7 8 9 9 9 10 13 14 15 17 18 19 20 22 24 25
12 10 5 6 6 4 4 3 4 4 3 3 3 3 1 1 3 4 4 5 6 6 7 9 10 9 8 8 9 11 12 13 14 15 17 18 18 19 20 22 22 24 24
13 9 6 5 4 5 5 6 5 3 4 4 3 2 1 1 2 2 3 4 5 7 9 10 10 9 9 10 11 12 14 15 16 17 18 18 19 19 20 21 21 22 22
10 7 6 6 6 6 6 6 5 5 5 4 4 3 2 1 1 3 5 5 6 8 8 8 8 9 10 13 14 15 15 17 18 18 18 19 19 19 20 20 21 20 20
11 9 8 7 7 7 7 7 7 7 6 7 6 5 3 2 3 4 4 6 7 7 7 9 11 12 12 13 14 15 15 15 15 17 17 19 20 21 21 20 19 19 20
14 11 10 8 8 9 9 9 8 8 9 9 9 6 4 4 5 6 7 7 8 8 9 9 9 10 12 13 14 14 14 15 15 16 17 18 19 20 21 20 19 20 21
15 11 11 11 10 11 11 11 11 11 12 12 10 8 5 3 3 5 6 7 9 8 9 11 12 12 12 13 14 15 16 15 15 15 16 17 18 19 20 22 23 24 27
16 14 13 14 13 13 13 14 14 14 13 11 10 7 3 2 4 5 5 6 9 9 10 11 12 13 14 15 15 15 16 17 16 16 16 16 17 18 19 20 20 22 24
16 16 16 17 17 17 18 17 17 15 13 11 9 6 1 3 4 5 5 5 7 8 10 12 13 14 15 15 17 16 16 16 16 16 15 15 16 17 18 19 20 21 23
14 16 16 18 22 22 22 19 17 16 15 12 10 8 4 1 3 5 3 3 3 5 8 11 13 13 14 15 18 16 15 15 15 15 14 14 16 18 18 19 21 23 25
17 16 17 21 27 25 23 22 20 17 14 12 9 8 8 6 5 3 2 3 6 8 11 13 14 14 14 14 17 17 15 15 14 14 15 16 17 18 20 20 21 24 26
19 18 19 19 26 27 26 24 22 18 16 14 13 12 12 12 10 7 5 8 7 6 9 13 14 16 14 16 17 17 16 15 14 14 15 16 17 19 20 20 21 24 26
21 19 21 22 25 30 29 27 25 23 21 19 17 15 14 15 14 12 10 8 3 6 8 12 13 15 17 17 17 17 16 16 15 15 16 16 16 18 19 20 22 25 27
26 21 21 23 22 26 30 29 27 24 23 22 20 18 19 18 18 18 14 9 8 7 17 16 13 14 18 18 18 18 17 16 17 16 16 16 16 18 18 19 22 24 27
30 26 25 24 25 24 25 26 27 27 26 26 24 23 21 20 22 22 18 14 12 13 11 12 14 31 33 26 22 20 17 16 18 17 16 17 16 17 18 20 21 25 27
37 32 28 26 25 28 30 29 29 28 29 30 29 28 25 25 24 25 23 19 17 15 10 18 25 31 32 34 27 23 17 17 18 18 16 17 17 17 18 20 22 25 27
42 37 32 30 29 30 31 33 34 32 31 32 32 31 29 28 27 27 27 25 25 19 19 23 30 27 31 32 23 29 28 18 18 18 17 17 17 17 17 19 21 24 27
44 39 35 32 33 32 33 36 37 38 37 36 35 33 30 31 30 29 30 31 31 31 30 26 23 26 28 30 17 17 27 21 18 18 18 18 17 17 18 18 20 23 25
45 43 41 40 42 42 39 39 40 37 35 34 34 34 36 31 31 32 32 34 36 40 38 29 23 25 31 36 19 16 18 20 18 18 19 18 17 17 17 17 18 24 26
50 48 44 43 43 41 42 38 37 44 36 27 29 33 34 31 31 31 32 38 42 46 44 38 29 23 29 31 23 23 14 19 19 18 19 18 17 16 16 16 19 22 25
Wind_Direction
166 120 88 116 124 141 143 147 168 191 233 273 300 305 303 300 302 332 319 327 321 343 343 338 336 337 333 329 326 323 319 315 315 321 324 328 326 327 328 326 326 324 330
202 208 149 150 119 110 137 166 203 228 288 307 296 290 286 282 334 311 310 318 329 347 343 342 338 338 333 326 330 333 336 336 335 332 336 336 339 339 336 331 331 332 331
166 189 176 174 168 172 185 215 314 273 285 276 261 251 262 352 8 17 336 334 3 358 347 341 344 343 341 348 350 350 350 354 352 348 344 344 346 343 339 337 337 340 335
175 176 174 187 188 207 221 278 282 272 262 245 220 171 84 78 60 13 14 12 11 359 348 347 350 353 359 2 1 5 3 353 352 350 353 353 347 344 343 345 343 333 338
181 182 193 196 206 224 252 224 281 270 221 188 128 112 95 87 65 39 20 19 13 357 348 354 357 359 358 0 4 8 357 353 354 356 351 344 343 343 338 336 337 339 332
182 187 197 205 233 242 239 218 233 225 198 158 137 117 116 89 60 31 17 12 356 341 348 357 1 356 359 0 2 359 354 354 351 341 342 342 340 338 337 337 338 338 341
189 197 209 226 230 183 196 226 222 201 185 145 126 137 130 82 22 359 5 346 341 342 347 353 356 355 355 359 0 352 345 344 342 349 345 344 341 338 335 336 333 336 337
191 191 182 179 200 185 248 241 224 198 167 141 138 124 114 36 6 355 349 342 342 345 351 352 359 358 357 353 353 349 345 345 345 346 345 342 340 339 336 334 336 341 344
181 168 175 196 216 229 229 226 213 180 150 144 138 138 90 355 338 324 341 355 357 358 359 3 2 356 353 350 348 346 344 341 345 345 341 338 338 335 335 337 340 343 344
173 182 211 222 222 219 219 217 195 173 152 152 163 166 175 189 338 5 7 6 8 11 8 357 352 355 354 351 349 343 341 345 343 339 338 338 335 334 338 341 340 340 339
184 214 222 218 215 216 211 200 188 169 163 171 160 147 134 83 32 30 25 25 19 12 360 356 359 358 355 348 341 341 341 339 338 340 338 339 338 338 340 339 337 339 344
202 223 222 216 212 207 201 195 183 175 168 163 150 138 113 74 25 14 18 20 16 10 1 358 350 350 351 345 343 340 339 339 343 340 340 337 336 338 338 337 340 342 343
205 218 217 212 209 207 198 189 184 174 163 158 154 134 101 70 22 16 19 16 19 7 357 350 351 348 347 342 345 348 347 345 341 337 335 335 338 338 337 340 341 342 343
210 217 213 210 210 206 200 190 180 172 165 163 158 145 122 67 41 26 12 2 2 358 354 350 345 343 344 349 354 355 348 343 338 335 336 336 337 339 340 340 340 344 347
211 215 211 209 209 205 196 190 185 175 173 171 169 170 108 20 7 357 354 343 343 351 345 342 340 340 342 345 351 351 349 344 339 336 334 335 335 337 340 341 342 345 346
203 212 209 205 208 205 197 193 188 185 187 190 189 194 206 302 336 334 312 294 312 326 335 339 335 331 339 343 350 348 350 342 338 335 332 334 336 338 342 343 344 346 348
203 210 207 205 208 209 204 200 198 200 205 211 214 217 221 243 268 291 230 311 301 326 338 337 333 329 332 335 344 345 341 339 337 333 332 335 337 340 345 345 347 349 349
209 215 212 213 214 217 216 212 211 212 216 224 231 233 234 238 254 269 246 324 323 337 319 318 323 326 329 329 338 342 334 334 335 331 329 332 337 341 343 345 346 347 346
209 216 219 215 214 217 226 225 222 222 227 235 240 244 246 246 256 260 256 303 267 294 318 315 316 322 329 326 329 335 333 335 327 324 327 331 336 339 341 343 344 346 347
211 216 225 225 224 225 229 233 232 230 234 241 246 248 251 253 254 256 262 260 260 290 340 343 336 329 324 319 324 326 331 334 330 324 327 328 331 335 339 343 346 348 348
215 218 221 228 229 231 235 242 247 248 248 249 248 251 256 254 251 258 257 251 258 310 343 359 345 344 328 320 316 315 319 325 330 322 321 321 326 331 337 343 345 347 350
221 227 233 236 234 236 242 245 245 246 247 249 249 251 252 255 260 258 253 254 253 292 298 328 329 323 332 332 320 303 299 317 318 322 317 314 321 328 336 340 344 350 350
225 233 236 241 243 244 245 248 249 250 251 251 252 255 257 258 262 259 252 260 257 279 296 310 318 327 322 341 322 302 295 296 302 314 309 307 315 321 332 337 342 347 347
229 234 235 238 243 247 249 248 250 250 250 252 255 256 260 260 262 262 252 264 262 270 287 303 310 324 326 337 315 312 296 285 292 300 306 303 310 316 328 337 341 346 348
229 233 238 242 244 248 249 253 252 253 251 256 262 263 264 267 272 270 256 263 273 273 273 296 293 312 313 331 309 295 293 280 275 298 301 296 302 311 324 332 338 345 352
231 235 237 244 246 250 250 256 263 264 244 245 262 263 265 273 270 264 260 259 276 281 268 281 290 297 305 316 278 290 317 282 270 277 294 288 293 308 315 326 333 343 348
Height
3207 3206 3208 3209 3211 3214 3215 3217 3219 3220 3220 3219 3218 3217 3217 3216 3215 3214 3214 3213 3213 3211 3210 3209 3208 3207 3206 3204 3202 3200 3197 3195 3193 3191 3189 3186 3184 3181 3179 3177 3174 3169 3168
3206 3207 3209 3210 3213 3214 3216 3217 3217 3217 3216 3216 3216 3216 3215 3215 3213 3214 3213 3213 3212 3211 3210 3209 3207 3205 3204 3202 3200 3198 3196 3194 3192 3190 3188 3185 3184 3182 3179 3176 3173 3169 3164
3206 3207 3207 3210 3212 3214 3215 3215 3214 3214 3214 3215 3215 3214 3214 3213 3214 3213 3213 3212 3211 3210 3209 3208 3206 3205 3204 3201 3199 3197 3195 3193 3191 3190 3188 3186 3184 3181 3178 3175 3172 3169 3164
3205 3205 3207 3209 3210 3211 3212 3213 3213 3213 3213 3213 3213 3213 3213 3213 3212 3212 3212 3211 3210 3209 3209 3207 3206 3204 3202 3199 3197 3196 3195 3193 3190 3188 3186 3183 3180 3178 3175 3172 3169 3164 3162
3204 3205 3207 3209 3210 3211 3211 3212 3212 3211 3212 3212 3211 3212 3212 3212 3212 3212 3211 3209 3208 3208 3207 3205 3203 3202 3200 3198 3196 3195 3193 3191 3189 3187 3184 3181 3179 3176 3173 3170 3166 3162 3157
3201 3203 3205 3207 3208 3209 3210 3210 3210 3211 3210 3210 3210 3211 3211 3211 3210 3210 3209 3208 3208 3206 3205 3204 3202 3200 3198 3197 3195 3194 3192 3190 3187 3185 3183 3180 3177 3174 3170 3167 3163 3159 3156
3201 3203 3204 3205 3207 3207 3207 3208 3209 3208 3208 3209 3210 3210 3210 3210 3210 3210 3209 3208 3207 3206 3204 3203 3201 3199 3198 3196 3195 3192 3190 3188 3185 3183 3180 3177 3175 3172 3169 3165 3160 3156 3152
3200 3202 3203 3204 3205 3205 3205 3206 3206 3207 3207 3208 3209 3210 3210 3210 3210 3210 3209 3208 3207 3206 3203 3201 3200 3199 3197 3194 3192 3190 3188 3186 3183 3180 3178 3175 3173 3169 3166 3162 3158 3154 3150
3199 3200 3202 3202 3203 3204 3204 3205 3205 3206 3207 3208 3209 3209 3210 3210 3209 3208 3208 3207 3206 3204 3203 3202 3199 3197 3194 3193 3190 3188 3187 3184 3182 3179 3176 3174 3170 3167 3164 3160 3156 3153 3149
3197 3199 3200 3201 3202 3202 3203 3203 3204 3205 3207 3208 3209 3209 3209 3209 3208 3207 3207 3206 3205 3204 3202 3199 3197 3195 3193 3191 3190 3187 3185 3183 3179 3177 3174 3171 3168 3166 3162 3157 3154 3150 3147
3195 3197 3198 3199 3200 3200 3201 3202 3203 3205 3207 3208 3208 3208 3208 3207 3206 3205 3205 3204 3203 3201 3199 3198 3196 3194 3192 3190 3188 3185 3183 3180 3177 3175 3172 3169 3166 3162 3158 3155 3151 3148 3145
3194 3195 3196 3197 3198 3198 3200 3201 3203 3205 3207 3207 3207 3207 3207 3206 3205 3204 3204 3203 3202 3201 3199 3197 3194 3192 3190 3189 3186 3184 3181 3178 3176 3173 3169 3166 3163 3160 3156 3153 3150 3145 3141
3191 3193 3194 3195 3196 3197 3199 3201 3203 3205 3205 3205 3206 3206 3207 3205 3205 3204 3203 3203 3202 3200 3198 3197 3194 3192 3189 3187 3184 3181 3178 3175 3173 3170 3167 3163 3160 3158 3153 3150 3145 3141 3136
3188 3190 3191 3193 3194 3195 3197 3200 3201 3203 3204 3204 3205 3206 3206 3206 3205 3204 3203 3202 3201 3199 3197 3195 3192 3190 3187 3185 3181 3178 3175 3172 3170 3168 3165 3162 3159 3155 3152 3148 3145 3140 3136
3185 3186 3188 3189 3191 3193 3196 3197 3199 3200 3202 3204 3206 3206 3205 3205 3204 3203 3202 3200 3199 3197 3195 3193 3191 3189 3186 3183 3179 3175 3172 3169 3167 3165 3163 3160 3157 3153 3149 3146 3143 3139 3134
3181 3183 3184 3186 3188 3191 3193 3196 3197 3198 3200 3202 3203 3203 3203 3203 3202 3201 3200 3198 3196 3194 3193 3190 3188 3186 3184 3181 3178 3173 3169 3166 3164 3162 3160 3157 3154 3151 3146 3142 3138 3134 3131
3177 3179 3181 3182 3185 3188 3191 3193 3194 3196 3198 3200 3200 3201 3201 3201 3199 3198 3197 3196 3194 3193 3192 3190 3186 3183 3181 3178 3175 3171 3168 3164 3161 3158 3156 3154 3151 3148 3145 3141 3137 3132 3128
3173 3176 3177 3179 3182 3185 3187 3190 3191 3193 3194 3196 3196 3197 3197 3196 3196 3195 3194 3193 3192 3190 3188 3186 3184 3182 3178 3176 3172 3169 3165 3162 3159 3156 3153 3151 3147 3145 3141 3138 3134 3130 3125
3168 3171 3173 3175 3177 3180 3182 3184 3187 3188 3189 3190 3191 3192 3192 3192 3192 3191 3191 3190 3188 3186 3185 3183 3181 3179 3177 3173 3170 3166 3163 3160 3157 3153 3151 3148 3145 3141 3139 3135 3131 3126 3122
3163 3166 3169 3171 3173 3175 3177 3179 3181 3183 3184 3185 3186 3186 3186 3187 3187 3187 3187 3185 3184 3182 3180 3177 3175 3175 3173 3169 3166 3163 3159 3156 3153 3150 3147 3145 3143 3139 3136 3132 3128 3124 3119
3157 3160 3162 3164 3167 3170 3172 3173 3175 3177 3178 3179 3180 3180 3181 3181 3180 3180 3180 3180 3179 3177 3173 3170 3169 3166 3166 3165 3161 3157 3155 3152 3150 3146 3143 3142 3139 3136 3133 3129 3125 3121 3116
3149 3153 3157 3159 3161 3163 3165 3167 3168 3170 3171 3172 3173 3174 3175 3175 3175 3175 3174 3172 3170 3168 3166 3164 3162 3162 3161 3159 3156 3150 3149 3148 3145 3143 3140 3138 3135 3133 3131 3127 3123 3118 3113
3141 3146 3150 3152 3154 3156 3158 3160 3161 3163 3164 3165 3166 3166 3168 3168 3168 3168 3168 3166 3163 3161 3160 3157 3156 3156 3156 3151 3149 3146 3141 3141 3140 3139 3136 3134 3131 3129 3126 3123 3120 3116 3111
3134 3138 3142 3144 3146 3147 3149 3151 3152 3153 3155 3157 3158 3159 3161 3160 3160 3162 3162 3159 3157 3154 3152 3151 3151 3149 3149 3146 3143 3141 3138 3136 3135 3134 3132 3130 3128 3126 3123 3119 3117 3113 3108
3124 3128 3132 3134 3136 3137 3139 3141 3142 3144 3144 3146 3150 3152 3153 3155 3154 3156 3155 3155 3152 3149 3146 3146 3144 3142 3144 3141 3138 3135 3132 3129 3128 3127 3127 3125 3124 3122 3120 3117 3113 3111 3106
3114 3118 3121 3124 3127 3129 3131 3133 3135 3135 3134 3134 3138 3141 3146 3146 3146 3146 3145 3145 3142 3139 3139 3139 3139 3136 3135 3134 3129 3126 3123 3125 3122 3120 3119 3120 3119 3118 3116 3114 3111 3107 3103